Theta_e
293 292 293 292 292 293 292 294 294 293 294 294 294 293 293 293 292 291 292 292 291 290 292 292 292 292 292 292 292 291 291 291 291 291 291 291 292 293 295 296 298 298 297 298
292 293 293 293 293 292 293 294 294 294 292 292 291 291 292 291 291 291 290 291 290 290 289 290 290 290 290 290 290 290 289 289 289 289 289 290 290 291 293 295 296 297 299 299
291 292 293 292 292 293 294 294 295 292 291 291 290 290 290 290 291 291 291 290 289 289 288 288 288 289 289 289 289 288 288 288 288 288 288 288 289 289 290 292 295 296 297 297
291 292 292 292 293 293 294 293 293 292 291 290 290 291 290 290 290 291 291 290 289 289 288 288 288 288 287 287 287 287 287 287 287 287 288 288 289 289 290 291 292 296 296 296
292 291 292 293 293 292 291 292 292 291 290 288 290 291 289 291 293 292 290 290 289 288 288 287 286 287 286 286 285 285 285 285 285 286 286 287 288 288 289 290 291 293 294 296
292 292 292 292 292 291 292 290 290 286 281 281 288 291 289 291 292 291 289 288 288 287 287 286 286 285 284 284 283 283 283 283 284 285 285 285 286 286 287 289 290 292 295 296
290 291 291 290 287 284 281 283 286 280 278 280 288 287 288 292 291 291 289 288 288 287 286 285 284 283 283 282 282 281 282 282 282 282 283 283 284 285 286 287 288 290 293 294
288 286 289 288 288 288 285 285 286 289 287 288 288 281 291 291 291 290 288 287 287 285 285 284 283 282 281 280 280 280 280 280 280 280 280 281 282 283 284 285 286 288 291 294
286 285 286 287 288 288 283 281 286 289 274 280 285 288 289 291 289 288 287 288 285 284 283 282 281 281 280 279 279 279 278 278 279 279 279 279 280 281 282 283 285 287 288 291
281 285 286 286 286 286 287 290 288 281 288 279 282 286 286 286 285 288 287 286 284 282 282 281 280 280 279 278 278 277 277 277 277 277 277 278 278 279 281 283 284 286 287 290
275 280 283 282 280 282 282 280 287 286 285 286 280 283 281 279 279 282 284 287 283 280 279 280 279 279 278 277 276 276 276 276 276 276 276 276 277 278 280 281 283 285 287 289
281 285 282 280 280 282 283 280 283 289 283 277 278 285 278 276 283 280 285 287 284 281 280 279 277 276 276 276 276 276 275 275 275 275 275 276 277 278 279 280 282 283 286 289
283 285 285 280 277 281 278 285 289 284 277 279 278 282 281 287 286 286 286 284 281 280 278 277 276 276 275 275 276 275 275 275 275 275 275 276 277 277 278 280 281 283 285 288
284 273 279 282 279 271 276 277 278 278 283 277 283 283 285 287 286 287 286 283 277 274 278 276 275 275 275 275 275 275 275 275 275 276 276 276 276 277 278 279 280 283 286 289
282 279 271 277 278 270 278 278 280 274 284 285 284 283 286 286 286 286 281 278 277 276 276 275 275 274 274 274 274 274 274 274 275 276 276 277 278 278 279 279 281 283 286 289
280 282 273 282 274 271 274 282 283 284 283 284 286 282 281 284 284 284 280 274 275 274 275 275 274 274 274 274 273 273 273 274 275 275 277 279 281 282 281 281 282 284 288 290
283 281 277 277 274 276 285 282 279 278 274 279 284 283 279 285 284 284 278 271 271 272 274 274 274 274 274 273 273 273 273 274 274 276 278 281 285 290 284 286 287 288 288 291
277 282 278 279 276 279 286 278 278 279 277 277 284 284 279 280 282 280 268 270 271 272 274 274 274 274 273 273 272 272 274 274 274 276 278 281 285 290 291 290 290 290 291 293
281 285 280 281 269 280 290 285 283 283 284 284 284 280 278 277 279 278 270 265 268 269 272 273 274 274 273 272 272 272 274 273 274 275 278 280 284 286 288 290 293 293 294 295
278 282 285 275 280 279 282 283 282 278 280 279 276 275 272 283 285 283 271 267 269 271 274 274 274 274 273 271 271 272 273 273 273 275 277 280 282 284 286 287 289 290 291 291
272 271 283 282 285 279 285 286 285 282 282 279 273 274 276 281 281 281 277 271 268 272 275 275 274 273 272 271 270 271 272 271 272 274 276 278 280 283 284 285 286 287 288 289
278 276 276 279 276 280 285 287 288 283 279 276 274 274 276 276 277 277 275 271 271 273 275 274 273 273 272 270 269 270 270 270 272 274 275 276 280 280 283 283 283 285 285 286
280 283 283 284 280 280 279 286 284 279 280 278 280 281 281 282 281 281 280 278 276 276 275 274 273 272 272 270 269 268 268 270 272 273 274 275 277 280 281 282 283 283 284 285
283 283 285 281 282 283 278 284 285 280 283 283 282 281 281 282 282 281 280 278 277 276 275 274 273 272 270 270 269 268 268 270 272 273 273 274 275 277 280 281 282 284 283 284
283 284 284 283 285 284 284 286 283 282 279 280 279 279 279 280 280 280 281 279 277 276 275 274 272 271 270 270 270 271 271 271 270 271 271 272 273 274 275 278 281 282 284 284
284 284 283 284 284 286 287 284 280 280 279 278 277 277 277 277 278 279 279 279 277 276 275 274 272 271 270 271 271 272 272 271 270 270 270 270 271 272 273 274 276 280 281 283
Wind_Speed
3 7 12 17 8 14 18 17 20 21 20 18 19 21 23 19 17 15 16 16 13 5 3 12 12 10 10 11 11 11 13 15 18 21 23 25 25 26 28 28 27 30 29 31
5 12 15 14 13 19 17 21 21 16 17 17 18 20 22 20 16 13 8 3 6 5 6 7 16 18 17 17 19 19 18 18 19 21 23 23 23 25 25 26 28 28 25 26
4 13 15 11 16 19 17 17 15 17 18 18 16 12 18 25 17 16 13 7 6 8 8 9 9 15 19 18 19 21 23 23 23 24 26 26 25 28 28 28 27 30 31 33
8 4 13 14 15 16 15 13 13 17 15 12 6 13 17 16 12 10 11 8 7 10 9 8 9 10 14 18 22 24 26 25 22 21 22 22 22 22 25 25 25 25 31 35
9 14 19 15 13 13 9 5 12 11 16 7 19 3 7 12 6 4 9 10 9 7 7 7 7 11 18 21 24 25 26 24 23 23 23 23 25 26 26 27 28 26 32 31
13 9 5 14 8 5 8 4 14 5 2 2 6 6 4 7 3 5 5 7 7 7 5 5 10 17 19 22 23 24 26 27 25 23 23 24 28 29 26 25 25 25 26 29
15 7 3 5 8 7 8 5 4 5 4 5 8 8 3 5 6 3 2 9 8 7 7 10 12 12 19 23 24 25 25 28 28 27 28 29 30 29 29 29 28 27 25 28
6 8 9 17 13 11 5 5 2 5 5 12 12 3 3 2 4 2 6 8 7 6 9 10 11 13 18 21 24 25 26 29 29 29 31 32 32 31 32 31 32 31 29 27
6 6 23 16 19 3 7 2 5 3 0 3 3 6 5 3 3 7 8 9 8 9 9 11 11 15 21 24 25 26 28 30 30 31 32 33 32 33 34 33 32 31 32 31
6 17 4 12 9 5 5 5 5 4 4 5 5 5 3 13 7 16 14 12 11 8 12 14 14 19 25 28 30 30 30 31 32 32 33 33 33 35 35 32 34 33 34 33
2 5 9 8 2 6 7 3 3 1 3 2 4 6 7 6 5 12 12 14 8 9 11 14 14 22 25 26 28 29 30 31 32 32 32 34 33 33 33 34 35 34 35 33
5 4 7 11 12 6 5 4 4 2 6 2 3 9 3 4 8 4 14 14 11 8 12 13 13 18 22 24 28 30 31 31 32 33 35 35 32 31 33 38 38 34 35 34
5 3 9 9 7 5 3 3 5 2 2 5 3 6 6 16 15 15 14 11 9 12 14 14 14 15 16 24 28 30 32 31 32 34 34 35 34 33 35 37 36 35 36 38
4 1 7 8 10 3 7 7 2 5 2 4 8 13 18 18 15 17 16 9 8 8 13 13 14 15 19 26 28 31 33 33 33 31 31 34 33 34 36 36 35 34 34 35
3 5 4 9 14 5 11 11 16 3 13 6 11 7 17 14 14 13 8 8 11 13 15 16 16 16 18 24 30 34 33 35 35 34 32 32 33 34 35 35 35 35 34 36
2 4 2 13 8 5 5 13 13 13 8 7 8 8 6 8 9 9 9 7 10 14 15 16 17 18 20 24 30 36 35 36 34 33 29 33 30 28 33 33 33 32 34 33
3 0 3 5 3 3 2 6 4 4 4 4 2 7 6 17 17 14 8 4 7 11 14 16 17 17 20 28 32 33 37 36 34 31 33 31 24 17 28 30 31 30 31 30
3 2 3 5 5 4 5 3 4 5 6 4 8 8 9 12 13 9 4 3 9 8 12 15 14 20 29 33 34 36 37 37 35 33 36 36 28 10 17 22 24 23 23 25
8 3 3 1 2 6 0 6 1 2 4 5 6 7 7 8 7 4 3 3 4 6 9 12 22 23 28 31 36 35 36 37 37 37 38 38 31 25 23 16 14 20 21 19
2 4 3 3 1 4 5 6 4 4 4 5 3 6 4 10 11 5 4 3 6 8 14 17 26 24 26 33 35 33 34 35 34 38 38 37 34 33 29 28 24 22 25 23
4 3 6 7 3 6 4 6 6 4 5 5 2 6 4 3 5 9 9 7 4 9 14 21 25 20 23 29 31 29 33 33 39 40 41 41 41 36 34 34 33 28 28 30
4 2 3 2 1 6 5 4 1 5 5 3 4 4 4 7 9 7 8 5 7 6 13 21 19 23 27 28 27 26 29 37 38 40 40 40 42 41 38 36 33 29 30 29
2 6 3 5 5 6 5 5 6 4 5 5 4 5 6 9 6 9 6 5 2 4 10 15 18 19 27 30 26 24 30 36 34 33 35 37 39 42 41 40 37 33 27 27
5 4 7 4 6 10 6 4 2 3 4 5 4 7 8 9 10 10 8 6 3 2 5 11 16 17 19 31 31 28 30 32 25 28 29 30 33 34 38 38 36 32 28 26
5 3 4 8 14 11 8 6 2 4 3 5 6 5 9 10 11 8 10 7 5 3 2 6 10 12 17 25 30 34 35 35 26 23 26 27 28 29 27 33 37 35 42 39
8 11 4 6 7 5 5 3 3 5 6 7 10 12 9 10 11 11 10 10 7 6 2 2 6 10 15 19 24 29 32 33 30 23 24 25 22 21 22 22 24 38 42 43
Wind_Direction
248 299 281 293 275 297 312 311 307 307 307 306 301 293 294 288 281 282 282 286 287 111 87 81 73 50 18 357 343 328 313 302 297 296 295 292 285 286 284 277 277 269 266 260
334 268 272 304 310 308 302 298 301 301 308 301 293 294 290 280 279 276 285 119 121 106 66 34 21 12 0 339 326 319 311 303 296 294 292 287 288 287 285 286 275 269 267 266
221 274 308 326 319 306 304 299 303 303 313 302 296 292 297 300 291 276 260 153 87 70 42 16 4 352 339 330 321 313 308 301 293 288 286 284 280 279 278 273 270 265 261 261
272 252 312 310 302 295 298 304 303 306 323 305 317 300 301 298 314 53 84 77 54 37 23 358 340 325 330 327 318 311 307 302 294 286 282 278 274 271 269 268 267 269 260 257
264 301 297 297 280 291 274 307 290 296 291 323 305 228 284 309 266 94 58 46 27 10 348 316 322 331 328 321 317 311 307 301 296 289 280 275 271 268 269 267 268 268 262 262
261 272 261 262 288 288 305 334 305 314 92 355 261 348 264 292 345 51 15 18 341 299 315 326 331 325 318 315 311 307 303 296 293 289 282 273 271 271 270 269 263 261 256 256
317 279 315 27 339 341 23 1 309 350 357 237 317 334 296 25 53 64 19 330 321 339 332 335 326 323 318 313 308 304 299 296 292 286 281 275 271 270 266 263 259 256 261 249
347 321 23 338 312 288 269 175 204 295 304 299 312 255 292 225 104 49 342 300 304 316 339 317 316 312 310 308 306 303 298 291 288 283 278 274 269 264 261 258 253 252 250 254
310 271 318 289 303 272 296 356 231 266 63 47 257 297 287 143 342 314 311 331 311 323 315 314 311 309 314 313 305 299 292 287 283 279 276 273 266 259 257 255 253 251 248 248
261 303 324 328 332 356 336 290 317 344 306 306 294 286 252 312 310 330 325 325 315 312 328 326 319 320 315 307 303 300 294 287 285 281 275 270 265 260 256 253 250 246 245 242
232 220 289 348 320 291 324 329 295 213 169 287 318 282 238 245 264 306 308 318 316 313 313 320 313 310 303 301 299 295 294 289 286 281 277 271 264 258 254 250 246 243 241 238
233 272 284 251 260 242 212 254 192 319 323 231 194 283 258 230 303 278 311 319 329 323 318 317 310 307 308 306 306 304 300 293 288 285 280 273 266 259 250 245 243 237 237 234
281 240 314 323 354 356 34 341 324 8 44 215 162 273 303 323 323 323 319 315 326 332 323 321 320 317 314 311 311 311 303 297 293 287 279 273 266 255 246 243 239 235 231 232
35 304 180 258 253 181 308 290 290 159 246 247 244 290 307 314 320 320 326 328 324 318 322 318 319 319 315 315 316 312 310 309 303 294 284 276 266 252 243 239 236 232 227 226
122 259 186 246 257 209 255 273 288 189 263 254 286 297 295 302 307 309 304 324 337 330 331 323 323 320 315 319 320 320 317 315 313 307 296 282 268 249 236 229 225 224 222 223
263 269 68 295 280 204 264 269 256 262 266 237 263 279 250 291 305 312 308 329 334 323 326 321 323 323 323 324 323 323 323 323 322 313 307 303 281 243 224 220 216 214 213 217
240 224 19 271 297 326 302 258 238 266 239 176 283 256 313 325 323 323 312 329 309 310 317 322 321 320 321 324 325 324 326 329 333 330 333 331 323 207 198 202 201 204 207 208
208 168 165 267 348 17 238 231 203 221 267 267 285 287 289 292 296 296 240 263 307 308 321 325 322 323 326 328 333 331 336 341 344 345 351 356 3 55 179 182 187 192 202 201
199 184 275 210 205 277 198 303 272 130 276 206 249 284 290 290 303 304 242 207 248 275 301 303 315 323 328 338 338 339 345 348 350 355 359 359 14 39 64 81 139 175 173 162
126 211 192 14 176 241 241 270 191 129 287 238 210 279 288 322 350 301 285 292 295 295 316 326 330 334 344 346 345 347 349 351 356 355 360 8 20 35 49 58 61 84 106 102
326 347 217 234 254 288 237 275 144 54 258 294 221 264 269 286 233 278 309 306 271 297 327 346 343 338 346 349 353 355 351 354 348 357 7 13 23 35 44 55 52 61 80 88
188 150 248 49 52 289 202 345 101 237 294 240 274 252 266 261 284 283 288 284 303 317 343 0 347 343 350 358 359 359 358 346 353 3 11 13 24 31 39 49 52 56 64 70
298 190 207 185 227 252 211 213 243 196 235 276 264 299 293 301 296 306 299 308 296 317 343 5 358 346 352 2 5 2 355 1 360 9 10 11 22 29 34 39 42 44 55 65
268 200 246 337 264 259 262 272 248 222 256 305 340 321 318 317 313 311 312 301 307 340 342 6 14 354 355 0 3 7 8 16 13 13 13 18 26 26 35 41 42 47 49 54
216 292 244 261 279 277 270 141 311 317 295 335 326 314 321 323 313 304 312 310 295 295 342 16 25 13 359 5 9 9 16 23 23 23 18 22 27 28 30 43 47 46 50 56
229 243 196 232 231 213 259 33 35 342 337 336 331 327 335 320 312 321 311 307 293 293 281 13 49 37 12 12 16 13 14 21 25 28 25 20 23 29 35 34 44 57 56 54